This is the latest recevied weather packets stored in our database for station/object KB9HUO. If no packets are shown the sender has not sent any weather packets the latest 10 day(s).
| Time | Temp. | Humidity | Pressure | Rain* | Wind** | Luminosity | Snow |
|---|---|---|---|---|---|---|---|
| 1777884115 | 12.78° C | 71% | 1011.9 hPa | 0 mm | - | 0 W/m² | - |
| 1777883813 | 12.78° C | 71% | 1011.6 hPa | 0 mm | - | 0 W/m² | - |
| 1777883509 | 12.78° C | 72% | 1011.6 hPa | 0 mm | - | 0 W/m² | - |
| 1777883205 | 13.33° C | 70% | 1011.3 hPa | 0 mm | - | 0 W/m² | - |
| 1777882902 | 13.33° C | 70% | 1011.2 hPa | 0 mm | - | 0 W/m² | - |
| 1777882599 | 13.33° C | 69% | 1011.1 hPa | 0 mm | - | 0 W/m² | - |
| 1777882295 | 13.33° C | 69% | 1011 hPa | 0 mm | - | 0 W/m² | - |
| 1777881992 | 13.33° C | 69% | 1011 hPa | 0 mm | - | 0 W/m² | - |
| 1777881688 | 13.89° C | 67% | 1011 hPa | 0 mm | - | 0 W/m² | - |
| 1777881385 | 14.44° C | 63% | 1011.1 hPa | 0 mm | - | 0 W/m² | - |
| 1777881082 | 14.44° C | 60% | 1011 hPa | 0 mm | - | 0 W/m² | - |
| 1777880780 | 14.44° C | 60% | 1010.7 hPa | 0 mm | - | 0 W/m² | - |
| 1777880478 | 14.44° C | 59% | 1010.7 hPa | 0 mm | - | 0 W/m² | - |
| 1777880176 | 14.44° C | 60% | 1010.7 hPa | 0 mm | - | 0 W/m² | - |
| 1777879874 | 14.44° C | 59% | 1010.5 hPa | 0 mm | - | 0 W/m² | - |
| 1777879572 | 14.44° C | 59% | 1010.7 hPa | 0 mm | - | 0 W/m² | - |
| 1777879268 | 14.44° C | 59% | 1010.9 hPa | 0 mm | - | 0 W/m² | - |
| 1777878966 | 14.44° C | 59% | 1010.9 hPa | 0 mm | - | 0 W/m² | - |
| 1777878663 | 14.44° C | 59% | 1010.8 hPa | 0 mm | - | 0 W/m² | - |
| 1777878360 | 14.44° C | 60% | 1011 hPa | 0 mm | - | 0 W/m² | - |
| 1777878056 | 14.44° C | 60% | 1011.2 hPa | 0 mm | - | 0 W/m² | - |
| 1777877752 | 14.44° C | 59% | 1011.3 hPa | 0 mm | - | 0 W/m² | - |
| 1777877449 | 14.44° C | 59% | 1011.3 hPa | 0 mm | - | 0 W/m² | - |
| 1777877146 | 14.44° C | 59% | 1011.6 hPa | 0 mm | - | 0 W/m² | - |
| 1777876843 | 14.44° C | 59% | 1011.5 hPa | 0 mm | - | 0 W/m² | - |
* Rain latest hour (hover to see other rain measurements)
** Current wind speed in m/s (hover to see current wind gust speed)